This is the latest recevied weather packets stored in our database for station/object KC5EZZ-2. If no packets are shown the sender has not sent any weather packets the latest 10 day(s).
| Time | Temp. | Humidity | Pressure | Rain* | Wind** | Luminosity | Snow |
|---|---|---|---|---|---|---|---|
| 1777448024 | 21.67° C | - | - | 0 mm | 2.24 m/s, 32° | - | - |
| 1777447722 | 21.67° C | - | - | 0 mm | 2.24 m/s, 10° | - | - |
| 1777447422 | 21.11° C | - | - | 0 mm | 2.68 m/s, 350° | - | - |
| 1777447123 | 21.67° C | - | - | 0 mm | 3.58 m/s, 330° | - | - |
| 1777446820 | 21.67° C | - | - | 0 mm | 2.68 m/s, 17° | - | - |
| 1777446521 | 21.67° C | - | - | 0 mm | 3.58 m/s, 359° | - | - |
| 1777446222 | 22.22° C | - | - | 0 mm | 4.02 m/s, 345° | - | - |
| 1777445917 | 22.22° C | - | - | 0 mm | 4.02 m/s, 11° | - | - |
| 1777445618 | 22.22° C | - | - | 0 mm | 3.58 m/s, 1° | - | - |
| 1777445319 | 22.22° C | - | - | 0 mm | 2.68 m/s, 359° | - | - |
| 1777445016 | 22.22° C | - | - | 0 mm | 3.58 m/s, 359° | - | - |
| 1777444716 | 22.78° C | - | - | 0 mm | 3.13 m/s, 352° | - | - |
| 1777444417 | 22.78° C | - | - | 0 mm | 4.02 m/s, 349° | - | - |
| 1777444114 | 22.78° C | - | - | 0 mm | 3.13 m/s, 349° | - | - |
| 1777443815 | 22.78° C | - | - | 0 mm | 4.02 m/s, 350° | - | - |
| 1777443516 | 22.78° C | - | - | 0 mm | 3.58 m/s, 13° | - | - |
| 1777443213 | 23.33° C | - | - | 0 mm | 3.13 m/s, 3° | - | - |
| 1777442914 | 23.33° C | - | - | 0 mm | 5.36 m/s, 356° | - | - |
| 1777442614 | 23.89° C | - | - | 0 mm | 5.36 m/s, 333° | - | - |
| 1777442311 | 24.44° C | - | - | 0 mm | 4.92 m/s, 343° | - | - |
| 1777442011 | 24.44° C | - | - | 0 mm | 3.58 m/s, 314° | - | - |
| 1777441712 | 25° C | - | - | 0 mm | 1.79 m/s, 352° | - | - |
| 1777441410 | 25° C | - | - | 0 mm | 4.02 m/s, 349° | - | - |
| 1777441110 | 25.56° C | - | - | 0 mm | 3.13 m/s, 10° | - | - |
| 1777440811 | 25.56° C | - | - | 0 mm | 3.13 m/s, 20° | - | - |
* Rain latest hour (hover to see other rain measurements)
** Current wind speed in m/s (hover to see current wind gust speed)